Regional Weather Roundup
Issued by NWS

Home | Current Version | Previous Version | Text Only | Print | Product List | Glossary On
Versions: 1 2 3 4 5 6 7 8 9 10 11 12 13 14 15 16 17 18 19 20 21 22 23 24 25 26 27 28 29 30 31 32 33 34 35 36 37 38 39 40 41 42 43 44 45 46 47 48 49 50
000
ASUS42 KFFC 272103
RWRGA
WEATHER ROUNDUP FOR GEORGIA
NATIONAL WEATHER SERVICE PEACHTREE CITY GA
500 PM EDT TUE SEP 27 2016

NOTE: "FAIR" INDICATES FEW OR NO CLOUDS BELOW 12,000 FEET WITH NO
SIGNIFICANT WEATHER AND/OR OBSTRUCTIONS TO VISIBILITY.

* = USE WITH CAUTION. THE STATIONS MARKED WITH AN ASTERISK MAY NOT
REPORT WEATHER SUCH AS PRECIPITATION, FOG, OR THUNDER AND ARE NOT
QUALITY CONTROLLED BY NWS.

THE REMARK "TC" DENOTES TEMPERATURE READING IN DEGREES CELSIUS.

GAZ001>058-272200-
NORTH GEORGIA

CITY           SKY/WX    TMP DP  RH WIND       PRES   REMARKS
ATLANTA        PTSUNNY   88  64  44 SW9       29.88F
ATHENS         SUNNY     89  67  47 VRB6      29.86F HX  92
CHAMBLEE       LGT RAIN  77  66  68 NE8       29.89F
PEACHTREE CITY CLOUDY    87  66  49 S6        29.88F
ROME           MOSUNNY   85  67  54 SE3       29.87F
WEST ATLANTA   CLOUDY    86  64  47 N3        29.87F
GAINESVILLE    MOSUNNY   86  66  51 NW12      29.90F
CARTERSVILLE   MOSUNNY   87  65  47 VRB3      29.88F


CITY           SKY/WX    TMP DP  RH WIND       PRES   REMARKS
DALTON*        MOSUNNY   81  66  61 CALM      29.89F
LAWRENCEVILLE* PTSUNNY   84  64  51 SW12      29.88F
KENNESAW*      PTSUNNY   82  63  51 NW6       29.85F
CANTON*        MOSUNNY   82  57  42 NW6       29.91F
BLAIRSVILLE*     N/A    N/A N/A N/A MISG      29.94S
$$

GAZ059>098-102>109-272200-
CENTRAL GEORGIA

CITY           SKY/WX    TMP DP  RH WIND       PRES   REMARKS
AUGUSTA-BUSH   PTSUNNY   85  68  56 SE7       29.85F
AUGUSTA-DANIEL MOSUNNY   87  65  47 SE8       29.87F
COLUMBUS       MOSUNNY   88  63  43 VRB5      29.87F
MACON          SUNNY     88  64  44 CALM      29.87F
ROBINS AFB     SUNNY     90  67  47 SE9       29.86F HX  93


CITY           SKY/WX    TMP DP  RH WIND       PRES   REMARKS
LAGRANGE*      SUNNY     89  69  52 W6        29.89F HX  93
MILLEDGEVILLE* MOSUNNY   82  73  74 CALM      29.87S
$$

GAZ099>101-110>166-272200-
SOUTH GEORGIA

CITY           SKY/WX    TMP DP  RH WIND       PRES   REMARKS
SAVANNAH       PTSUNNY   86  66  51 N5        29.87F
VALDOSTA       MOSUNNY   88  69  53 VRB3      29.89F HX  92
ALMA           PTSUNNY   86  67  52 CALM      29.88F
ST SIMONS      SUNNY     83  69  62 E9        29.88F
ALBANY         SUNNY     89  67  47 SE6       29.90F HX  92
HUNTER AFB     SUNNY     84  77  81 E8        29.86S HX  94
MOODY AFB      MOSUNNY   87  64  46 VRB3      29.88F
BRUNSWICK      MOSUNNY   84  72  65 E5        29.89S


CITY           SKY/WX    TMP DP  RH WIND       PRES   REMARKS
BAINBRIDGE*    PTSUNNY   90  70  51 CALM      29.88F HX  95
MOULTRIE*      SUNNY     86  68  54 CALM      29.91F
VIDALIA*       MOSUNNY   86  72  62 CALM      29.89S HX  92
WAYCROSS*      PTSUNNY   91  70  50 W3        29.88F HX  96
DOUGLAS*       CLOUDY    86  64  48 W3        29.90F
$$



USA.gov is the U.S. government's official web portal to all federal, state and local government web resources and services.